Regional Weather Roundup
Issued by NWS

Home | Current Version | Previous Version | Text Only | Print | Product List | Glossary Off
Versions: 1 2 3 4 5 6 7 8 9 10 11 12 13 14 15 16 17 18 19 20 21 22 23 24 25 26 27 28 29 30 31 32 33 34 35 36 37 38 39 40 41 42 43 44 45 46 47 48 49 50

000
ASUS43 KOAX 230210
RWRNE

WEATHER ROUNDUP FOR NEBRASKA
NATIONAL WEATHER SERVICE OMAHA NE
900 PM CDT FRI JUL 22 2016

NOTES: SATELLITE DATA IS BEING USED TO AUGMENT CLOUD COVER ABOVE
       12000 FEET.
       "FAIR" INDICATES FEW OR NO CLOUDS BELOW 12,000 FEET WITH NO
       SIGNIFICANT WEATHER AND/OR OBSTRUCTIONS TO VISIBILITY.

  * THESE STATIONS DO NOT REPORT WEATHER SUCH AS RAIN...SNOW OR FOG.

NEZ001>004-019>022-054>056-230300-
NEBRASKA PANHANDLE

CITY           SKY/WX    TMP DP  RH WIND       PRES   REMARKS
SCOTTSBLUFF    CLOUDY    76  60  57 E16       30.01S
ALLIANCE       CLOUDY    68  64  87 SE10      30.01F
CHADRON        CLOUDY    80  57  45 SE18G32   29.94F
KIMBALL        CLOUDY    74  63  67 E17       30.08R
SIDNEY         CLOUDY    71  63  75 NE28G35   30.05F THUNDER
$$

NEZ057>060-069>072-079>082-230300-
SOUTHWEST NEBRASKA

CITY           SKY/WX    TMP DP  RH WIND       PRES   REMARKS
NORTH PLATTE   CLOUDY    82  70  66 SE6       29.95S
IMPERIAL       CLOUDY    84  65  52 SE12      29.96F
LEXINGTON      CLOUDY    84  73  69 SE6       29.93F HX  90
MCCOOK         CLOUDY    84  72  67 E9        29.91F
OGALLALA       TSTM      78  73  86 CALM      29.93F
$$

NEZ005>010-023>029-035>040-094-230300-
NORTH CENTRAL NEBRASKA

CITY           SKY/WX    TMP DP  RH WIND       PRES   REMARKS
VALENTINE      CLOUDY    87  71  58 E8        29.95F HX  93
AINSWORTH      CLOUDY    85  77  77 E3        29.97S HX  95
BROKEN BOW     CLOUDY    81  75  82 E3        29.94F
O`NEILL        PTCLDY    86  76  73 E6        29.95R HX  96
ORD            MOCLDY    87  78  74 SE7       29.92R HX 100
THEDFORD       CLOUDY    87  75  67 CALM      30.00R HX  95
$$

NEZ041-046>049-061>064-073>077-083>087-230300-
SOUTH CENTRAL NEBRASKA

CITY           SKY/WX    TMP DP  RH WIND       PRES   REMARKS
GRAND ISLAND   CLEAR     84  70  62 S3        29.91F
AURORA         CLEAR     82  79  90 CALM      29.91S HX  91
HASTINGS       CLEAR     83  72  69 CALM      29.92F HAZE
HEBRON         PTCLDY    82  72  71 E5        29.90S
HOLDREGE       MOCLDY    80  73  77 CALM      29.92F
KEARNEY *      CLOUDY    82  73  74 E3        29.93F
YORK           CLEAR     81  75  83 CALM      29.91S
$$

NEZ011>018-030>034-042>045-230300-
NORTHEAST NEBRASKA

CITY           SKY/WX    TMP DP  RH WIND       PRES   REMARKS
NORFOLK        CLEAR     84  77  79 E3        29.91S HX  94
ALBION         MOCLDY    85  76  75 SE6       29.93R HX  94
BLAIR          PTCLDY    86  81  85 E9        29.91S HX 102
FREMONT        CLEAR     87  75  66 CALM      29.90S HX  96
TEKAMAH        CLEAR     86  81  85 E8        29.89S HX 102
WAYNE          CLOUDY    83  80  89 E6        29.91S HX  95
$$

NEZ050>053-065>068-078-088>093-230300-
SOUTHEAST NEBRASKA

CITY           SKY/WX    TMP DP  RH WIND       PRES   REMARKS
LINCOLN        PTCLDY    86  70  58 CALM      29.89F HX  90
OMAHA EPPLEY   MOCLDY    89  81  77 E12       29.89S HX 108
BEATRICE       CLOUDY    80  72  75 N5        29.90F
FALLS CITY     PTCLDY    85  77  77 SE7       29.89S HX  95
NEBRASKA CITY  MOCLDY    84  80  88 SE3       29.89S HX  98
PLATTSMOUTH    MOCLDY    85  82  90 CALM      29.90S HX 102
$$

NEZ044-045-051>053-067-230300-
OMAHA AREA

CITY           SKY/WX    TMP DP  RH WIND       PRES   REMARKS
OMAHA EPPLEY   MOCLDY    89  81  77 E12       29.89S HX 108
BLAIR          PTCLDY    86  81  85 E9        29.91S HX 102
FREMONT        CLEAR     87  75  66 CALM      29.90S HX  96
MILLARD        CLOUDY    89  79  73 SE5       29.89S HX 104
OFFUTT AFB     MOCLDY    86  83  89 E7        29.89S HX 105
PLATTSMOUTH    MOCLDY    85  82  90 CALM      29.90S HX 102
WAHOO          FAIR      84  78  82 CALM      29.89F HX  95
$$



USA.gov is the U.S. government's official web portal to all federal, state and local government web resources and services.